This demonstration page uses our WeatherBlox Daily Observations layout. Learn more.

39.29038, -76.61219

Hourly Observations for April 6, 2019

Temp ( °F °C ) Dew Point ( °F °C ) Humidity (%) Winds ( mph kmh ) Pressure ( in mb ) Visibility ( mi km ) Precip ( " mm )
12:54 am 00:54 undefined 44 6.7 41 5 89 89 undefined N/A 30.22 1023 N/A 0 0
1:54 am 01:54 undefined 44 6.7 41 5 89 89 undefined N/A 30.2 1023 N/A 0 0
2:54 am 02:54 undefined 44 6.7 41 5 89 89 undefined N/A 30.19 1022 N/A 0 0
3:54 am 03:54 undefined 44 6.7 40 4.4 85 85 undefined N/A 30.18 1022 N/A 0 0
4:54 am 04:54 undefined 45 7.2 40 4.4 83 83 undefined N/A 30.18 1022 N/A 0 0
5:54 am 05:54 undefined 45 7.2 40 4.4 83 83 undefined N/A 30.19 1023 N/A 0 0
6:54 am 06:54 undefined 45 7.2 40 4.4 83 83 undefined N/A 30.21 1023 N/A 0 0
7:54 am 07:54 undefined 45 7.2 40 4.4 83 83 undefined N/A 30.22 1023 N/A 0 0
8:54 am 08:54 undefined 47 8.3 41 5 80 80 undefined N/A 30.23 1024 N/A 0 0
9:54 am 09:54 undefined 50 10 41 5 71 71 undefined N/A 30.23 1024 N/A 0 0
10:54 am 10:54 undefined 54 12.2 43 6.1 67 67 undefined N/A 30.23 1024 N/A 0 0
11:54 am 11:54 undefined 59 15 44 6.7 58 58 undefined N/A 30.23 1024 N/A 0 0
12:54 pm 12:54 undefined 62 16.7 45 7.2 54 54 undefined N/A 30.22 1023 N/A 0 0
1:54 pm 13:54 undefined 65 18.3 45 7.2 49 49 undefined N/A 30.2 1023 N/A 0 0
2:54 pm 14:54 undefined 66 18.9 45 7.2 47 47 undefined N/A 30.2 1023 N/A 0 0
3:54 pm 15:54 undefined 68 20 46 7.8 45 45 undefined N/A 30.19 1022 N/A 0 0
4:54 pm 16:54 undefined 66 18.9 46 7.8 49 49 undefined N/A 30.18 1022 N/A 0 0
5:54 pm 17:54 undefined 64 17.8 45 7.2 50 50 undefined N/A 30.17 1022 N/A 0 0
6:54 pm 18:54 undefined 63 17.2 45 7.2 52 52 undefined N/A 30.18 1022 N/A 0 0
7:54 pm 19:54 undefined 61 16.1 45 7.2 56 56 undefined N/A 30.19 1022 N/A 0 0
8:54 pm 20:54 undefined 61 16.1 45 7.2 56 56 undefined N/A 30.21 1023 N/A 0 0
9:54 pm 21:54 undefined 59 15 46 7.8 62 62 undefined N/A 30.22 1024 N/A 0 0
10:54 pm 22:54 undefined 58 14.4 46 7.8 65 65 undefined N/A 30.23 1024 N/A 0 0
11:54 pm 23:54 undefined 58 14.4 46 7.8 65 65 undefined N/A 30.24 1024 N/A 0 0

Powered by AerisWeather